BAW815C EKCH-EGLL

Flight info

Callsign BAW815C
Flight time 1h 35m
Altitude 38000
Route LANGO2A LANGO DCT RAXLU DCT JUIST DCT ABNED L980 LOGAN LOGAN2H
Aircraft A21N/M-SDE3FGIJ1LRWXYZ/SB1G1

Departure

Time 2026-04-26 19:00
Airport Copenhagen Kastrup Airport (EKCH)

Arrival

Time 2026-04-26 20:36
Airport London Heathrow Airport (EGLL)
Time Latitude Longitude Altitude Speed Heading
2026-04-26 18:42 55.62658 12.64911 29 ft 0 kts 101°
2026-04-26 18:45 55.62660 12.64891 29 ft 1 kts 105°
2026-04-26 18:45 55.62670 12.64847 29 ft 4 kts 120°
2026-04-26 18:46 55.62685 12.64808 29 ft 1 kts 133°
2026-04-26 18:46 55.62703 12.64774 29 ft 1 kts 123°
2026-04-26 18:46 55.62709 12.64755 29 ft 4 kts 102°
2026-04-26 18:46 55.62694 12.64785 29 ft 1 kts 151°
2026-04-26 18:47 55.62669 12.64790 29 ft 1 kts 186°
2026-04-26 18:47 55.62645 12.64780 29 ft 4 kts 194°
2026-04-26 18:47 55.62619 12.64771 29 ft 4 kts 188°
2026-04-26 18:47 55.62594 12.64769 29 ft 1 kts 179°
2026-04-26 18:48 55.62593 12.64769 29 ft 3 kts 179°
2026-04-26 18:53 55.62592 12.64769 29 ft 1 kts 179°
2026-04-26 18:53 55.62572 12.64770 29 ft 5 kts 179°
2026-04-26 18:53 55.62522 12.64772 29 ft 9 kts 178°
2026-04-26 18:53 55.62443 12.64776 29 ft 13 kts 178°
2026-04-26 18:54 55.62338 12.64785 29 ft 16 kts 177°
2026-04-26 18:54 55.62242 12.64792 29 ft 11 kts 183°
2026-04-26 18:54 55.62171 12.64723 30 ft 13 kts 212°
2026-04-26 18:54 55.62088 12.64629 29 ft 15 kts 213°
2026-04-26 18:55 55.61995 12.64523 29 ft 13 kts 210°
2026-04-26 18:55 55.61918 12.64503 29 ft 13 kts 170°
2026-04-26 18:55 55.61824 12.64533 29 ft 15 kts 169°
2026-04-26 18:55 55.61725 12.64567 29 ft 10 kts 169°
2026-04-26 18:56 55.61651 12.64534 29 ft 12 kts 210°
2026-04-26 18:56 55.61571 12.64445 29 ft 15 kts 213°
2026-04-26 18:56 55.61479 12.64337 29 ft 17 kts 213°
2026-04-26 18:56 55.61375 12.64218 29 ft 19 kts 212°
2026-04-26 18:57 55.61260 12.64085 29 ft 21 kts 213°
2026-04-26 18:57 55.61220 12.64040 29 ft 21 kts 213°
2026-04-26 18:57 55.60998 12.63787 29 ft 24 kts 213°
2026-04-26 18:57 55.60878 12.63649 29 ft 9 kts 213°
2026-04-26 18:58 55.60816 12.63593 29 ft 11 kts 180°
2026-04-26 18:58 55.60747 12.63683 29 ft 14 kts 130°
2026-04-26 18:58 55.60697 12.63794 30 ft 10 kts 117°
2026-04-26 18:58 55.60711 12.63918 31 ft 12 kts 43°
2026-04-26 18:59 55.60724 12.63940 31 ft 0 kts 41°
2026-04-26 18:59 55.60907 12.64225 30 ft 72 kts 41°
2026-04-26 18:59 55.61454 12.65072 29 ft 132 kts 41°
2026-04-26 19:00 55.62240 12.66272 256 ft 153 kts 41°
2026-04-26 19:00 55.63029 12.67522 751 ft 156 kts 42°
2026-04-26 19:00 55.63850 12.68846 1179 ft 162 kts 39°
2026-04-26 19:00 55.64758 12.70219 1531 ft 180 kts 37°
2026-04-26 19:01 55.65739 12.71697 2114 ft 196 kts 40°
2026-04-26 19:01 55.66822 12.73377 2711 ft 220 kts 38°
2026-04-26 19:01 55.68074 12.75229 3241 ft 247 kts 37°
2026-04-26 19:01 55.69399 12.77393 3907 ft 269 kts 45°
2026-04-26 19:02 55.70337 12.80279 4989 ft 274 kts 70°
2026-04-26 19:02 55.70524 12.83652 6037 ft 280 kts 95°
2026-04-26 19:02 55.69921 12.86948 7005 ft 286 kts 120°
2026-04-26 19:02 55.69548 12.87945 7310 ft 288 kts 128°
2026-04-26 19:03 55.66772 12.91173 8734 ft 295 kts 169°
2026-04-26 19:03 55.64725 12.91533 9657 ft 298 kts 183°
2026-04-26 19:03 55.62625 12.91515 10517 ft 307 kts 185°
2026-04-26 19:03 55.60470 12.90951 10951 ft 321 kts 204°
2026-04-26 19:04 55.59132 12.89782 11199 ft 328 kts 220°
2026-04-26 19:04 55.57534 12.86877 11594 ft 335 kts 243°
2026-04-26 19:04 55.56420 12.83227 12331 ft 339 kts 249°
2026-04-26 19:04 55.55355 12.79474 13185 ft 343 kts 249°
2026-04-26 19:05 55.53127 12.71897 14858 ft 351 kts 248°
2026-04-26 19:05 55.51981 12.68076 15607 ft 355 kts 248°
2026-04-26 19:05 55.50813 12.64212 16343 ft 359 kts 247°
2026-04-26 19:06 55.49631 12.60312 17075 ft 362 kts 247°
2026-04-26 19:06 55.48436 12.56376 17802 ft 366 kts 247°
2026-04-26 19:06 55.47229 12.52409 18497 ft 369 kts 247°
2026-04-26 19:06 55.46006 12.48384 19024 ft 374 kts 247°
2026-04-26 19:07 55.44770 12.44329 19238 ft 376 kts 247°
2026-04-26 19:07 55.43530 12.40276 19326 ft 376 kts 247°
2026-04-26 19:07 55.42286 12.36228 19347 ft 376 kts 247°
2026-04-26 19:07 55.41038 12.32170 19339 ft 376 kts 247°
2026-04-26 19:08 55.39795 12.28126 19357 ft 376 kts 247°
2026-04-26 19:08 55.38546 12.24072 19755 ft 378 kts 246°
2026-04-26 19:08 55.37285 12.19992 20344 ft 381 kts 246°
2026-04-26 19:08 55.36015 12.15878 20949 ft 385 kts 246°
2026-04-26 19:09 55.34731 12.11733 21569 ft 387 kts 246°
2026-04-26 19:09 55.33436 12.07564 22181 ft 390 kts 246°
2026-04-26 19:09 55.32130 12.03367 22754 ft 394 kts 247°
2026-04-26 19:09 55.30810 11.99125 23332 ft 398 kts 246°
2026-04-26 19:10 55.29473 11.94845 23894 ft 402 kts 246°
2026-04-26 19:10 55.28124 11.90533 24391 ft 405 kts 246°
2026-04-26 19:10 55.26761 11.86192 24900 ft 407 kts 246°
2026-04-26 19:10 55.25393 11.81828 25409 ft 410 kts 246°
2026-04-26 19:11 55.24014 11.77439 25908 ft 412 kts 246°
2026-04-26 19:11 55.22626 11.73038 26394 ft 414 kts 246°
2026-04-26 19:11 55.21227 11.68602 26845 ft 417 kts 246°
2026-04-26 19:11 55.19821 11.64150 27284 ft 419 kts 246°
2026-04-26 19:12 55.18400 11.59671 27726 ft 422 kts 246°
2026-04-26 19:12 55.16973 11.55171 28149 ft 425 kts 246°
2026-04-26 19:12 55.15552 11.50700 28316 ft 426 kts 246°
2026-04-26 19:12 55.14088 11.46116 28450 ft 427 kts 246°
2026-04-26 19:13 55.12653 11.41627 28839 ft 430 kts 246°
2026-04-26 19:13 55.11192 11.37050 29294 ft 432 kts 246°
2026-04-26 19:13 55.09721 11.32460 29725 ft 434 kts 245°
2026-04-26 19:13 55.08240 11.27856 30145 ft 436 kts 245°
2026-04-26 19:14 55.06758 11.23249 30635 ft 434 kts 245°
2026-04-26 19:14 55.05277 11.18652 31089 ft 433 kts 245°
2026-04-26 19:14 55.03796 11.14083 31521 ft 433 kts 245°
2026-04-26 19:14 55.02798 11.11003 31803 ft 432 kts 245°
2026-04-26 19:15 55.00836 11.04968 32340 ft 431 kts 245°
2026-04-26 19:15 54.99359 11.00424 32765 ft 430 kts 245°
2026-04-26 19:15 54.97884 10.95889 33175 ft 430 kts 245°
2026-04-26 19:15 54.96411 10.91368 33590 ft 429 kts 245°
2026-04-26 19:16 54.94936 10.86867 33976 ft 429 kts 244°
2026-04-26 19:16 54.93317 10.82483 34337 ft 431 kts 241°
2026-04-26 19:16 54.91634 10.78174 34622 ft 431 kts 241°
2026-04-26 19:16 54.89941 10.73865 34893 ft 432 kts 241°
2026-04-26 19:17 54.88247 10.69556 35163 ft 432 kts 241°
2026-04-26 19:17 54.86553 10.65254 35428 ft 432 kts 241°
2026-04-26 19:17 54.84880 10.61004 35674 ft 432 kts 241°
2026-04-26 19:17 54.83181 10.56695 35927 ft 433 kts 241°
2026-04-26 19:18 54.81498 10.52371 36175 ft 431 kts 243°
2026-04-26 19:18 54.79934 10.47938 36400 ft 431 kts 244°
2026-04-26 19:18 54.78395 10.43478 36651 ft 431 kts 244°
2026-04-26 19:18 54.76855 10.39020 36895 ft 431 kts 244°
2026-04-26 19:19 54.75309 10.34569 37135 ft 432 kts 244°
2026-04-26 19:19 54.73753 10.30112 37368 ft 432 kts 244°
2026-04-26 19:19 54.72197 10.25665 37597 ft 432 kts 244°
2026-04-26 19:19 54.70643 10.21219 37821 ft 432 kts 244°
2026-04-26 19:20 54.69084 10.16776 38042 ft 433 kts 244°
2026-04-26 19:20 54.68027 10.13770 38185 ft 433 kts 244°
2026-04-26 19:20 54.65955 10.07887 38356 ft 434 kts 244°
2026-04-26 19:21 54.62808 9.99003 38336 ft 433 kts 244°
2026-04-26 19:21 54.59662 9.90143 38305 ft 433 kts 243°
2026-04-26 19:22 54.56507 9.81301 38318 ft 433 kts 243°
2026-04-26 19:22 54.53351 9.72472 38317 ft 433 kts 243°
2026-04-26 19:23 54.50187 9.63664 38309 ft 431 kts 243°
2026-04-26 19:23 54.47029 9.54896 38315 ft 432 kts 243°
2026-04-26 19:24 54.43855 9.46135 38318 ft 432 kts 243°
2026-04-26 19:24 54.39090 9.33010 38301 ft 432 kts 243°
2026-04-26 19:25 54.36424 9.25690 38321 ft 432 kts 243°
2026-04-26 19:25 54.32710 9.15560 38333 ft 432 kts 243°
2026-04-26 19:26 54.29509 9.06853 38315 ft 432 kts 243°
2026-04-26 19:26 54.26311 8.98173 38332 ft 431 kts 243°
2026-04-26 19:27 54.23109 8.89518 38340 ft 431 kts 242°
2026-04-26 19:27 54.19897 8.80864 38342 ft 431 kts 242°
2026-04-26 19:28 54.16682 8.72227 38332 ft 431 kts 242°
2026-04-26 19:28 54.13454 8.63603 38346 ft 431 kts 242°
2026-04-26 19:29 54.10226 8.54990 38347 ft 431 kts 242°
2026-04-26 19:29 54.07004 8.46444 38337 ft 431 kts 242°
2026-04-26 19:30 54.03744 8.37830 38366 ft 429 kts 242°
2026-04-26 19:30 54.01053 8.30736 38368 ft 429 kts 242°
2026-04-26 19:31 53.97262 8.20768 38360 ft 429 kts 242°
2026-04-26 19:31 53.94033 8.12308 38362 ft 430 kts 242°
2026-04-26 19:32 53.90777 8.03805 38366 ft 430 kts 242°
2026-04-26 19:32 53.87514 7.95307 38364 ft 430 kts 242°
2026-04-26 19:33 53.84243 7.86820 38363 ft 430 kts 241°
2026-04-26 19:33 53.80975 7.78380 38361 ft 428 kts 241°
2026-04-26 19:34 53.77706 7.69960 38361 ft 428 kts 241°
2026-04-26 19:34 53.74431 7.61548 38349 ft 428 kts 241°
2026-04-26 19:35 53.71145 7.53148 38365 ft 429 kts 241°
2026-04-26 19:35 53.67855 7.44748 38361 ft 429 kts 241°
2026-04-26 19:36 53.65114 7.37777 38360 ft 429 kts 241°
2026-04-26 19:36 53.61256 7.28001 38358 ft 429 kts 241°
2026-04-26 19:37 53.57957 7.19669 38357 ft 427 kts 240°
2026-04-26 19:37 53.54652 7.11346 38360 ft 427 kts 240°
2026-04-26 19:38 53.51348 7.03050 38359 ft 427 kts 240°
2026-04-26 19:38 53.48027 6.94762 38361 ft 428 kts 240°
2026-04-26 19:39 53.44723 6.86543 38360 ft 428 kts 240°
2026-04-26 19:39 53.41393 6.78275 38373 ft 428 kts 240°
2026-04-26 19:40 53.38059 6.70021 38368 ft 428 kts 240°
2026-04-26 19:40 53.34724 6.61797 38362 ft 426 kts 240°
2026-04-26 19:41 53.31393 6.53602 38370 ft 426 kts 240°
2026-04-26 19:41 53.29162 6.48128 38365 ft 426 kts 240°
2026-04-26 19:42 53.24708 6.37241 38361 ft 426 kts 240°
2026-04-26 19:42 53.21358 6.29077 38379 ft 426 kts 239°
2026-04-26 19:43 53.17999 6.20921 38368 ft 426 kts 239°
2026-04-26 19:43 53.14641 6.12781 38376 ft 426 kts 239°
2026-04-26 19:44 53.11283 6.04676 38379 ft 424 kts 239°
2026-04-26 19:44 53.07922 5.96599 38367 ft 425 kts 239°
2026-04-26 19:45 53.04551 5.88522 38376 ft 425 kts 239°
2026-04-26 19:45 53.01174 5.80457 38372 ft 425 kts 239°
2026-04-26 19:46 52.97792 5.72396 38377 ft 426 kts 239°
2026-04-26 19:46 52.94399 5.64347 38375 ft 426 kts 239°
2026-04-26 19:47 52.92130 5.58968 38362 ft 425 kts 239°
2026-04-26 19:47 52.87613 5.48301 38349 ft 425 kts 238°
2026-04-26 19:48 52.84208 5.40300 38365 ft 425 kts 238°
2026-04-26 19:48 52.81373 5.33659 38361 ft 425 kts 238°
2026-04-26 19:49 52.77963 5.25691 38364 ft 425 kts 238°
2026-04-26 19:49 52.74546 5.17732 38373 ft 425 kts 238°
2026-04-26 19:50 52.71128 5.09792 38368 ft 424 kts 238°
2026-04-26 19:50 52.67700 5.01856 38367 ft 425 kts 238°
2026-04-26 19:51 52.64269 4.93929 38354 ft 426 kts 238°
2026-04-26 19:51 52.60829 4.85994 38360 ft 426 kts 238°
2026-04-26 19:52 52.57379 4.78070 38357 ft 426 kts 238°
2026-04-26 19:52 52.53919 4.70158 38355 ft 426 kts 238°
2026-04-26 19:53 52.50461 4.62251 38360 ft 426 kts 237°
2026-04-26 19:53 52.46990 4.54369 38359 ft 426 kts 237°
2026-04-26 19:54 52.43514 4.46495 38344 ft 426 kts 237°
2026-04-26 19:54 52.40030 4.38631 38359 ft 427 kts 237°
2026-04-26 19:55 52.36537 4.30760 38354 ft 427 kts 237°
2026-04-26 19:55 52.33059 4.22951 38354 ft 427 kts 237°
2026-04-26 19:56 52.29559 4.15115 38358 ft 427 kts 237°
2026-04-26 19:56 52.26047 4.07272 38358 ft 427 kts 237°
2026-04-26 19:57 52.22533 3.99455 38357 ft 427 kts 237°
2026-04-26 19:57 52.19012 3.91644 38350 ft 427 kts 236°
2026-04-26 19:58 52.15496 3.83869 38354 ft 426 kts 236°
2026-04-26 19:58 52.11975 3.76105 38354 ft 426 kts 236°
2026-04-26 19:59 52.08448 3.68357 38366 ft 426 kts 236°
2026-04-26 19:59 52.04912 3.60615 38365 ft 427 kts 236°
2026-04-26 20:00 52.01374 3.52883 38367 ft 426 kts 236°
2026-04-26 20:00 51.97835 3.45168 38352 ft 427 kts 236°
2026-04-26 20:01 51.94285 3.37460 38350 ft 425 kts 236°
2026-04-26 20:01 51.90764 3.29834 38347 ft 426 kts 236°
2026-04-26 20:02 51.87198 3.22110 38353 ft 425 kts 237°
2026-04-26 20:02 51.84974 3.15116 38350 ft 420 kts 255°
2026-04-26 20:03 51.83977 3.04347 38343 ft 417 kts 266°
2026-04-26 20:03 51.83440 2.95008 38351 ft 417 kts 265°
2026-04-26 20:04 51.82841 2.85695 38345 ft 416 kts 265°
2026-04-26 20:04 51.82230 2.76387 38351 ft 416 kts 265°
2026-04-26 20:05 51.81919 2.71770 38081 ft 412 kts 265°
2026-04-26 20:05 51.81605 2.67153 37805 ft 414 kts 265°
2026-04-26 20:05 51.81288 2.62528 37523 ft 414 kts 265°
2026-04-26 20:05 51.80969 2.57904 37254 ft 414 kts 265°
2026-04-26 20:06 51.80646 2.53275 36983 ft 414 kts 264°
2026-04-26 20:06 51.80321 2.48647 36722 ft 415 kts 264°
2026-04-26 20:06 51.79999 2.44026 36376 ft 414 kts 265°
2026-04-26 20:06 51.79676 2.39418 35815 ft 412 kts 264°
2026-04-26 20:07 51.79347 2.34829 35188 ft 412 kts 264°
2026-04-26 20:07 51.79020 2.30234 34539 ft 412 kts 264°
2026-04-26 20:07 51.78688 2.25626 33794 ft 413 kts 264°
2026-04-26 20:07 51.78380 2.21017 33068 ft 413 kts 265°
2026-04-26 20:08 51.78108 2.16405 32431 ft 411 kts 265°
2026-04-26 20:08 51.77839 2.11821 31837 ft 409 kts 265°
2026-04-26 20:08 51.77568 2.07253 31258 ft 407 kts 265°
2026-04-26 20:08 51.77301 2.02717 30709 ft 404 kts 265°
2026-04-26 20:09 51.77034 1.98219 30137 ft 402 kts 265°
2026-04-26 20:09 51.76767 1.93745 29506 ft 399 kts 265°
2026-04-26 20:09 51.76497 1.89307 28916 ft 396 kts 264°
2026-04-26 20:09 51.76226 1.84893 28352 ft 393 kts 264°
2026-04-26 20:10 51.75954 1.80507 27841 ft 392 kts 264°
2026-04-26 20:10 51.75679 1.76151 27293 ft 389 kts 264°
2026-04-26 20:10 51.75406 1.71822 26723 ft 387 kts 264°
2026-04-26 20:10 51.75134 1.67511 26176 ft 385 kts 264°
2026-04-26 20:11 51.74864 1.63228 25645 ft 383 kts 264°
2026-04-26 20:11 51.74594 1.58969 25101 ft 380 kts 264°
2026-04-26 20:11 51.74321 1.54695 24210 ft 385 kts 264°
2026-04-26 20:12 51.73769 1.46091 22575 ft 386 kts 264°
2026-04-26 20:12 51.73489 1.41823 22002 ft 379 kts 264°
2026-04-26 20:12 51.73214 1.37622 21458 ft 373 kts 264°
2026-04-26 20:12 51.72946 1.33497 20933 ft 366 kts 264°
2026-04-26 20:13 51.72683 1.29454 20419 ft 360 kts 264°
2026-04-26 20:13 51.72420 1.25479 19940 ft 354 kts 264°
2026-04-26 20:13 51.72160 1.21558 19490 ft 350 kts 264°
2026-04-26 20:13 51.71897 1.17613 19041 ft 348 kts 264°
2026-04-26 20:14 51.71640 1.13788 18600 ft 347 kts 264°
2026-04-26 20:14 51.71379 1.09936 18117 ft 345 kts 264°
2026-04-26 20:14 51.71119 1.06096 17667 ft 344 kts 264°
2026-04-26 20:14 51.70863 1.02339 17213 ft 342 kts 264°
2026-04-26 20:15 51.70605 0.98475 16749 ft 340 kts 264°
2026-04-26 20:15 51.70350 0.94690 16311 ft 339 kts 263°
2026-04-26 20:15 51.70093 0.90926 16230 ft 337 kts 263°
2026-04-26 20:15 51.69832 0.87165 16521 ft 339 kts 263°
2026-04-26 20:16 51.69428 0.83431 16461 ft 339 kts 252°
2026-04-26 20:16 51.68401 0.80021 16273 ft 339 kts 240°
2026-04-26 20:16 51.67446 0.76585 16038 ft 337 kts 256°
2026-04-26 20:16 51.67079 0.72868 15817 ft 336 kts 263°
2026-04-26 20:17 51.66836 0.69138 15552 ft 331 kts 264°
2026-04-26 20:17 51.66599 0.65468 14841 ft 328 kts 263°
2026-04-26 20:17 51.66349 0.61810 14030 ft 329 kts 263°
2026-04-26 20:17 51.66175 0.59339 13478 ft 328 kts 263°
2026-04-26 20:18 51.65840 0.54602 12866 ft 313 kts 263°
2026-04-26 20:18 51.65595 0.51195 12537 ft 299 kts 263°
2026-04-26 20:18 51.65358 0.47935 12132 ft 290 kts 263°
2026-04-26 20:18 51.65121 0.44738 11580 ft 286 kts 263°
2026-04-26 20:19 51.64887 0.41557 10982 ft 285 kts 263°
2026-04-26 20:19 51.64655 0.38388 10398 ft 284 kts 263°
2026-04-26 20:19 51.64419 0.35232 9769 ft 283 kts 263°
2026-04-26 20:19 51.64186 0.32113 9251 ft 278 kts 263°
2026-04-26 20:20 51.63956 0.29032 8643 ft 277 kts 263°
2026-04-26 20:20 51.63729 0.25988 8163 ft 271 kts 263°
2026-04-26 20:20 51.63511 0.23045 7867 ft 258 kts 263°
2026-04-26 20:20 51.63301 0.20240 7575 ft 248 kts 263°
2026-04-26 20:21 51.63091 0.17521 7353 ft 243 kts 263°
2026-04-26 20:21 51.62886 0.14799 7324 ft 246 kts 263°
2026-04-26 20:21 51.62723 0.12062 7341 ft 243 kts 265°
2026-04-26 20:21 51.62579 0.09378 7357 ft 239 kts 265°
2026-04-26 20:22 51.62433 0.06718 7360 ft 239 kts 264°
2026-04-26 20:22 51.62285 0.04049 7362 ft 240 kts 265°
2026-04-26 20:22 51.62139 0.01383 7362 ft 238 kts 265°
2026-04-26 20:22 51.61993 -0.01271 7342 ft 239 kts 264°
2026-04-26 20:23 51.61846 -0.03937 7338 ft 239 kts 265°
2026-04-26 20:23 51.61696 -0.06608 7336 ft 241 kts 265°
2026-04-26 20:23 51.61543 -0.09279 7343 ft 239 kts 264°
2026-04-26 20:23 51.61390 -0.11951 7342 ft 240 kts 265°
2026-04-26 20:24 51.61238 -0.14629 7344 ft 241 kts 265°
2026-04-26 20:24 51.61085 -0.17316 7344 ft 241 kts 264°
2026-04-26 20:24 51.60933 -0.19987 7338 ft 239 kts 264°
2026-04-26 20:24 51.60779 -0.22658 7333 ft 240 kts 264°
2026-04-26 20:25 51.60624 -0.25332 7337 ft 239 kts 264°
2026-04-26 20:25 51.60522 -0.27097 7338 ft 239 kts 264°
2026-04-26 20:25 51.60316 -0.30658 7339 ft 240 kts 264°
2026-04-26 20:25 51.60150 -0.33446 7345 ft 263 kts 264°
2026-04-26 20:26 51.59974 -0.36454 7348 ft 272 kts 264°
2026-04-26 20:26 51.59796 -0.39503 7340 ft 274 kts 264°
2026-04-26 20:26 51.59616 -0.42552 7340 ft 274 kts 264°
2026-04-26 20:26 51.59436 -0.45596 7336 ft 272 kts 264°
2026-04-26 20:27 51.59253 -0.48643 7334 ft 273 kts 264°
2026-04-26 20:27 51.59069 -0.51677 7337 ft 273 kts 264°
2026-04-26 20:27 51.58886 -0.54711 7331 ft 272 kts 264°
2026-04-26 20:27 51.58701 -0.57753 7329 ft 273 kts 264°
2026-04-26 20:28 51.58517 -0.60787 7331 ft 273 kts 264°
2026-04-26 20:28 51.58342 -0.63838 7328 ft 275 kts 267°
2026-04-26 20:28 51.58471 -0.66887 7170 ft 272 kts 278°
2026-04-26 20:28 51.58756 -0.69876 6782 ft 270 kts 278°
2026-04-26 20:29 51.59041 -0.72860 6321 ft 270 kts 278°
2026-04-26 20:29 51.59334 -0.75842 5915 ft 270 kts 279°
2026-04-26 20:29 51.59353 -0.78848 5547 ft 271 kts 258°
2026-04-26 20:29 51.58579 -0.81537 5201 ft 270 kts 232°
2026-04-26 20:30 51.57151 -0.83457 4854 ft 269 kts 206°
2026-04-26 20:30 51.55327 -0.84220 4481 ft 268 kts 180°
2026-04-26 20:30 51.53542 -0.83697 4138 ft 265 kts 156°
2026-04-26 20:30 51.52037 -0.82057 3791 ft 261 kts 134°
2026-04-26 20:31 51.50746 -0.80083 3567 ft 252 kts 143°
2026-04-26 20:31 51.49420 -0.78336 3421 ft 240 kts 134°
2026-04-26 20:31 51.48310 -0.76422 3298 ft 228 kts 128°
2026-04-26 20:31 51.47608 -0.74260 3141 ft 214 kts 101°
2026-04-26 20:32 51.47512 -0.71952 2951 ft 203 kts 87°
2026-04-26 20:32 51.47600 -0.69740 2716 ft 195 kts 86°
2026-04-26 20:32 51.47676 -0.67633 2503 ft 183 kts 88°
2026-04-26 20:32 51.47689 -0.65660 2291 ft 171 kts 90°
2026-04-26 20:33 51.47698 -0.63825 2048 ft 159 kts 91°
2026-04-26 20:33 51.47704 -0.62083 1849 ft 155 kts 90°
2026-04-26 20:33 51.47708 -0.60926 1702 ft 156 kts 90°
2026-04-26 20:33 51.47714 -0.59219 1476 ft 148 kts 91°
2026-04-26 20:34 51.47720 -0.57660 1259 ft 135 kts 90°
2026-04-26 20:34 51.47722 -0.56161 1083 ft 133 kts 91°
2026-04-26 20:34 51.47727 -0.54193 848 ft 133 kts 89°
2026-04-26 20:34 51.47736 -0.53195 714 ft 133 kts 90°
2026-04-26 20:35 51.47739 -0.51235 494 ft 132 kts 90°
2026-04-26 20:35 51.47747 -0.50243 342 ft 132 kts 91°
2026-04-26 20:35 51.47750 -0.48775 167 ft 131 kts 90°
2026-04-26 20:35 51.47758 -0.47362 93 ft 113 kts 90°
2026-04-26 20:36 51.47758 -0.46579 97 ft 41 kts 90°
2026-04-26 20:36 51.47755 -0.46278 95 ft 19 kts 91°
2026-04-26 20:36 51.47703 -0.46145 93 ft 16 kts 143°
2026-04-26 20:36 51.47632 -0.46070 93 ft 10 kts 164°
2026-04-26 20:37 51.47594 -0.46156 93 ft 13 kts 272°
2026-04-26 20:37 51.47593 -0.46312 92 ft 15 kts 269°
2026-04-26 20:37 51.47593 -0.46498 92 ft 18 kts 270°
2026-04-26 20:37 51.47592 -0.46710 92 ft 20 kts 269°
2026-04-26 20:38 51.47584 -0.46870 93 ft 14 kts 260°
2026-04-26 20:38 51.47583 -0.47038 95 ft 17 kts 270°
2026-04-26 20:38 51.47582 -0.47239 93 ft 19 kts 269°
2026-04-26 20:38 51.47581 -0.47459 92 ft 21 kts 270°
2026-04-26 20:39 51.47580 -0.47707 94 ft 23 kts 270°
2026-04-26 20:39 51.47579 -0.47977 95 ft 25 kts 269°
2026-04-26 20:39 51.47579 -0.48247 95 ft 16 kts 270°
2026-04-26 20:39 51.47578 -0.48377 95 ft 12 kts 269°
2026-04-26 20:40 51.47554 -0.48476 95 ft 11 kts 193°
2026-04-26 20:40 51.47475 -0.48476 92 ft 12 kts 180°
2026-04-26 20:40 51.47386 -0.48475 91 ft 13 kts 179°
2026-04-26 20:40 51.47300 -0.48474 91 ft 6 kts 179°
2026-04-26 20:41 51.47272 -0.48519 94 ft 7 kts 263°
2026-04-26 20:41 51.47271 -0.48569 93 ft 2 kts 268°
2026-04-26 20:41 51.47271 -0.48578 92 ft 0 kts 269°